Year,Month,Day,Hour,Minute,Value (Times are PST for barometer in hPa)
2008,03,21,00,00,1016.80
2008,03,21,00,01,1016.76
2008,03,21,00,02,1016.83
2008,03,21,00,03,1016.83
2008,03,21,00,04,1016.87
2008,03,21,00,05,1016.90
2008,03,21,00,06,1016.93
2008,03,21,00,07,1016.93
2008,03,21,00,08,1016.93
2008,03,21,00,09,1016.93
2008,03,21,00,10,1017.00
2008,03,21,00,11,1017.00
2008,03,21,00,12,1017.03
2008,03,21,00,13,1017.03
2008,03,21,00,14,1017.10
2008,03,21,00,15,1017.14
2008,03,21,00,16,1017.14
2008,03,21,00,17,1017.17
2008,03,21,00,18,1017.17
2008,03,21,00,19,1017.14
2008,03,21,00,20,1017.14
2008,03,21,00,21,1017.24
2008,03,21,00,22,1017.27
2008,03,21,00,23,1017.27
2008,03,21,00,24,1017.31
2008,03,21,00,25,1017.31
2008,03,21,00,26,1017.37
2008,03,21,00,27,1017.34
2008,03,21,00,28,1017.37
2008,03,21,00,29,1017.41
2008,03,21,00,30,1017.34
2008,03,21,00,31,1017.47
2008,03,21,00,32,1017.51
2008,03,21,00,33,1017.54
2008,03,21,00,34,1017.61
2008,03,21,00,35,1017.64
2008,03,21,00,36,1017.64
2008,03,21,00,37,1017.64
2008,03,21,00,38,1017.64
2008,03,21,00,39,1017.64
2008,03,21,00,40,1017.68
2008,03,21,00,41,1017.71
2008,03,21,00,42,1017.78
2008,03,21,00,43,1017.78
2008,03,21,00,44,1017.85
2008,03,21,00,45,1017.88
2008,03,21,00,46,1017.95
2008,03,21,00,47,1018.02
2008,03,21,00,48,1018.08
2008,03,21,00,49,1018.08
2008,03,21,00,50,1018.12
2008,03,21,00,51,1018.15
2008,03,21,00,52,1018.19
2008,03,21,00,53,1018.22
2008,03,21,00,54,1018.25
2008,03,21,00,55,1018.29
2008,03,21,00,56,1018.36
2008,03,21,00,57,1018.39
2008,03,21,00,58,1018.42
2008,03,21,00,59,1018.39
2008,03,21,01,00,1018.46
2008,03,21,01,01,1018.49
2008,03,21,01,02,1018.52
2008,03,21,01,03,1018.52
2008,03,21,01,04,1018.52
2008,03,21,01,05,1018.52
2008,03,21,01,06,1018.56
2008,03,21,01,07,1018.59
2008,03,21,01,08,1018.59
2008,03,21,01,09,1018.63
2008,03,21,01,10,1018.69
2008,03,21,01,11,1018.73
2008,03,21,01,12,1018.76
2008,03,21,01,13,1018.80
2008,03,21,01,14,1018.83
2008,03,21,01,15,1018.80
2008,03,21,01,16,1018.83
2008,03,21,01,17,1018.87
2008,03,21,01,18,1018.93
2008,03,21,01,19,1018.96
2008,03,21,01,20,1019.00
2008,03,21,01,21,1019.00
2008,03,21,01,22,1019.04
2008,03,21,01,23,1019.10
2008,03,21,01,24,1019.11
2008,03,21,01,25,1019.17
2008,03,21,01,26,1019.13
2008,03,21,01,27,1019.13
2008,03,21,01,28,1019.13
2008,03,21,01,29,1019.17
2008,03,21,01,30,1019.20
2008,03,21,01,31,1019.24
2008,03,21,01,32,1019.24
2008,03,21,01,33,1019.25
2008,03,21,01,34,1019.30
2008,03,21,01,35,1019.30
2008,03,21,01,36,1019.30
2008,03,21,01,37,1019.31
2008,03,21,01,38,1019.37
2008,03,21,01,39,1019.35
2008,03,21,01,40,1019.40
2008,03,21,01,41,1019.44
2008,03,21,01,42,1019.44
2008,03,21,01,43,1019.44
2008,03,21,01,44,1019.47
2008,03,21,01,45,1019.52
2008,03,21,01,46,1019.57
2008,03,21,01,47,1019.54
2008,03,21,01,48,1019.54
2008,03,21,01,49,1019.54
2008,03,21,01,50,1019.57
2008,03,21,01,51,1019.62
2008,03,21,01,52,1019.68
2008,03,21,01,53,1019.68
2008,03,21,01,54,1019.71
2008,03,21,01,55,1019.71
2008,03,21,01,56,1019.71
2008,03,21,01,57,1019.72
2008,03,21,01,58,1019.82
2008,03,21,01,59,1019.88
2008,03,21,02,00,1019.91
2008,03,21,02,01,1019.91
2008,03,21,02,02,1019.92
2008,03,21,02,03,1019.98
2008,03,21,02,04,1019.98
2008,03,21,02,05,1020.01
2008,03,21,02,06,1020.01
2008,03,21,02,07,1020.02
2008,03,21,02,08,1020.08
2008,03,21,02,09,1020.12
2008,03,21,02,10,1020.16
2008,03,21,02,11,1020.25
2008,03,21,02,12,1020.26
2008,03,21,02,13,1020.32
2008,03,21,02,14,1020.34
2008,03,21,02,15,1020.29
2008,03,21,02,16,1020.35
2008,03,21,02,17,1020.35
2008,03,21,02,18,1020.39
2008,03,21,02,19,1020.39
2008,03,21,02,20,1020.42
2008,03,21,02,21,1020.45
2008,03,21,02,22,1020.42
2008,03,21,02,23,1020.45
2008,03,21,02,24,1020.45
2008,03,21,02,25,1020.45
2008,03,21,02,26,1020.50
2008,03,21,02,27,1020.56
2008,03,21,02,28,1020.56
2008,03,21,02,29,1020.56
2008,03,21,02,30,1020.56
2008,03,21,02,31,1020.59
2008,03,21,02,32,1020.59
2008,03,21,02,33,1020.62
2008,03,21,02,34,1020.66
2008,03,21,02,35,1020.66
2008,03,21,02,36,1020.70
2008,03,21,02,37,1020.79
2008,03,21,02,38,1020.79
2008,03,21,02,39,1020.79
2008,03,21,02,40,1020.79
2008,03,21,02,41,1020.76
2008,03,21,02,42,1020.79
2008,03,21,02,43,1020.80
2008,03,21,02,44,1020.86
2008,03,21,02,45,1020.83
2008,03,21,02,46,1020.83
2008,03,21,02,47,1020.86
2008,03,21,02,48,1020.89
2008,03,21,02,49,1020.93
2008,03,21,02,50,1020.93
2008,03,21,02,51,1020.97
2008,03,21,02,52,1021.06
2008,03,21,02,53,1021.10
2008,03,21,02,54,1021.10
2008,03,21,02,55,1021.13
2008,03,21,02,56,1021.17
2008,03,21,02,57,1021.20
2008,03,21,02,58,1021.20
2008,03,21,02,59,1021.23
2008,03,21,03,00,1021.30
2008,03,21,03,01,1021.30
2008,03,21,03,02,1021.30
2008,03,21,03,03,1021.34
2008,03,21,03,04,1021.37
2008,03,21,03,05,1021.34
2008,03,21,03,06,1021.37
2008,03,21,03,07,1021.38
2008,03,21,03,08,1021.44
2008,03,21,03,09,1021.40
2008,03,21,03,10,1021.44
2008,03,21,03,11,1021.47
2008,03,21,03,12,1021.50
2008,03,21,03,13,1021.47
2008,03,21,03,14,1021.47
2008,03,21,03,15,1021.50
2008,03,21,03,16,1021.51
2008,03,21,03,17,1021.57
2008,03,21,03,18,1021.55
2008,03,21,03,19,1021.64
2008,03,21,03,20,1021.64
2008,03,21,03,21,1021.64
2008,03,21,03,22,1021.65
2008,03,21,03,23,1021.71
2008,03,21,03,24,1021.74
2008,03,21,03,25,1021.74
2008,03,21,03,26,1021.78
2008,03,21,03,27,1021.81
2008,03,21,03,28,1021.84
2008,03,21,03,29,1021.84
2008,03,21,03,30,1021.84
2008,03,21,03,31,1021.88
2008,03,21,03,32,1021.88
2008,03,21,03,33,1021.89
2008,03,21,03,34,1021.94
2008,03,21,03,35,1021.94
2008,03,21,03,36,1021.98
2008,03,21,03,37,1021.94
2008,03,21,03,38,1021.98
2008,03,21,03,39,1022.01
2008,03,21,03,40,1022.01
2008,03,21,03,41,1022.01
2008,03,21,03,42,1022.05
2008,03,21,03,43,1022.05
2008,03,21,03,44,1022.01
2008,03,21,03,45,1022.05
2008,03,21,03,46,1022.09
2008,03,21,03,47,1022.15
2008,03,21,03,48,1022.15
2008,03,21,03,49,1022.15
2008,03,21,03,50,1022.18
2008,03,21,03,51,1022.25
2008,03,21,03,52,1022.25
2008,03,21,03,53,1022.25
2008,03,21,03,54,1022.25
2008,03,21,03,55,1022.25
2008,03,21,03,56,1022.26
2008,03,21,03,57,1022.32
2008,03,21,03,58,1022.32
2008,03,21,03,59,1022.35
2008,03,21,04,00,1022.35
2008,03,21,04,01,1022.35
2008,03,21,04,02,1022.35
2008,03,21,04,03,1022.35
2008,03,21,04,04,1022.36
2008,03,21,04,05,1022.42
2008,03,21,04,06,1022.39
2008,03,21,04,07,1022.42
2008,03,21,04,08,1022.42
2008,03,21,04,09,1022.42
2008,03,21,04,10,1022.46
2008,03,21,04,11,1022.52
2008,03,21,04,12,1022.49
2008,03,21,04,13,1022.49
2008,03,21,04,14,1022.52
2008,03,21,04,15,1022.55
2008,03,21,04,16,1022.59
2008,03,21,04,17,1022.60
2008,03,21,04,18,1022.66
2008,03,21,04,19,1022.63
2008,03,21,04,20,1022.72
2008,03,21,04,21,1022.76
2008,03,21,04,22,1022.76
2008,03,21,04,23,1022.77
2008,03,21,04,24,1022.83
2008,03,21,04,25,1022.87
2008,03,21,04,26,1022.93
2008,03,21,04,27,1022.97
2008,03,21,04,28,1023.04
2008,03,21,04,29,1023.10
2008,03,21,04,30,1023.10
2008,03,21,04,31,1023.13
2008,03,21,04,32,1023.13
2008,03,21,04,33,1023.16
2008,03,21,04,34,1023.16
2008,03,21,04,35,1023.20
2008,03,21,04,36,1023.20
2008,03,21,04,37,1023.23
2008,03,21,04,38,1023.23
2008,03,21,04,39,1023.27
2008,03,21,04,40,1023.27
2008,03,21,04,41,1023.30
2008,03,21,04,42,1023.31
2008,03,21,04,43,1023.37
2008,03,21,04,44,1023.41
2008,03,21,04,45,1023.47
2008,03,21,04,46,1023.47
2008,03,21,04,47,1023.47
2008,03,21,04,48,1023.50
2008,03,21,04,49,1023.55
2008,03,21,04,50,1023.60
2008,03,21,04,51,1023.60
2008,03,21,04,52,1023.60
2008,03,21,04,53,1023.60
2008,03,21,04,54,1023.67
2008,03,21,04,55,1023.71
2008,03,21,04,56,1023.72
2008,03,21,04,57,1023.77
2008,03,21,04,58,1023.81
2008,03,21,04,59,1023.84
2008,03,21,05,00,1023.85
2008,03,21,05,01,1023.91
2008,03,21,05,02,1023.94
2008,03,21,05,03,1024.01
2008,03,21,05,04,1023.98
2008,03,21,05,05,1023.99
2008,03,21,05,06,1024.05
2008,03,21,05,07,1024.11
2008,03,21,05,08,1024.11
2008,03,21,05,09,1024.15
2008,03,21,05,10,1024.16
2008,03,21,05,11,1024.21
2008,03,21,05,12,1024.23
2008,03,21,05,13,1024.34
2008,03,21,05,14,1024.25
2008,03,21,05,15,1024.28
2008,03,21,05,16,1024.25
2008,03,21,05,17,1024.29
2008,03,21,05,18,1024.39
2008,03,21,05,19,1024.45
2008,03,21,05,20,1024.42
2008,03,21,05,21,1024.43
2008,03,21,05,22,1024.52
2008,03,21,05,23,1024.48
2008,03,21,05,24,1024.52
2008,03,21,05,25,1024.56
2008,03,21,05,26,1024.62
2008,03,21,05,27,1024.65
2008,03,21,05,28,1024.65
2008,03,21,05,29,1024.70
2008,03,21,05,30,1024.79
2008,03,21,05,31,1024.79
2008,03,21,05,32,1024.77
2008,03,21,05,33,1024.82
2008,03,21,05,34,1024.80
2008,03,21,05,35,1024.86
2008,03,21,05,36,1024.86
2008,03,21,05,37,1024.82
2008,03,21,05,38,1024.86
2008,03,21,05,39,1024.82
2008,03,21,05,40,1024.86
2008,03,21,05,41,1024.86
2008,03,21,05,42,1024.89
2008,03,21,05,43,1024.89
2008,03,21,05,44,1024.92
2008,03,21,05,45,1024.96
2008,03,21,05,46,1024.96
2008,03,21,05,47,1024.92
2008,03,21,05,48,1024.92
2008,03,21,05,49,1024.93
2008,03,21,05,50,1024.99
2008,03,21,05,51,1024.96
2008,03,21,05,52,1024.99
2008,03,21,05,53,1025.06
2008,03,21,05,54,1025.07
2008,03,21,05,55,1025.13
2008,03,21,05,56,1025.14
2008,03,21,05,57,1025.23
2008,03,21,05,58,1025.26
2008,03,21,05,59,1025.24
2008,03,21,06,00,1025.33
2008,03,21,06,01,1025.40
2008,03,21,06,02,1025.41
2008,03,21,06,03,1025.47
2008,03,21,06,04,1025.47
2008,03,21,06,05,1025.47
2008,03,21,06,06,1025.50
2008,03,21,06,07,1025.50
2008,03,21,06,08,1025.50
2008,03,21,06,09,1025.53
2008,03,21,06,10,1025.54
2008,03,21,06,11,1025.60
2008,03,21,06,12,1025.57
2008,03,21,06,13,1025.60
2008,03,21,06,14,1025.61
2008,03,21,06,15,1025.67
2008,03,21,06,16,1025.70
2008,03,21,06,17,1025.70
2008,03,21,06,18,1025.70
2008,03,21,06,19,1025.67
2008,03,21,06,20,1025.67
2008,03,21,06,21,1025.74
2008,03,21,06,22,1025.77
2008,03,21,06,23,1025.81
2008,03,21,06,24,1025.77
2008,03,21,06,25,1025.81
2008,03,21,06,26,1025.82
2008,03,21,06,27,1025.87
2008,03,21,06,28,1025.84
2008,03,21,06,29,1025.87
2008,03,21,06,30,1025.92
2008,03,21,06,31,1025.97
2008,03,21,06,32,1025.97
2008,03,21,06,33,1026.01
2008,03,21,06,34,1026.04
2008,03,21,06,35,1026.08
2008,03,21,06,36,1026.11
2008,03,21,06,37,1026.14
2008,03,21,06,38,1026.15
2008,03,21,06,39,1026.21
2008,03,21,06,40,1026.18
2008,03,21,06,41,1026.21
2008,03,21,06,42,1026.25
2008,03,21,06,43,1026.25
2008,03,21,06,44,1026.25
2008,03,21,06,45,1026.25
2008,03,21,06,46,1026.25
2008,03,21,06,47,1026.31
2008,03,21,06,48,1026.29
2008,03,21,06,49,1026.35
2008,03,21,06,50,1026.38
2008,03,21,06,51,1026.38
2008,03,21,06,52,1026.39
2008,03,21,06,53,1026.45
2008,03,21,06,54,1026.48
2008,03,21,06,55,1026.52
2008,03,21,06,56,1026.55
2008,03,21,06,57,1026.55
2008,03,21,06,58,1026.56
2008,03,21,06,59,1026.62
2008,03,21,07,00,1026.65
2008,03,21,07,01,1026.72
2008,03,21,07,02,1026.72
2008,03,21,07,03,1026.72
2008,03,21,07,04,1026.75
2008,03,21,07,05,1026.72
2008,03,21,07,06,1026.75
2008,03,21,07,07,1026.79
2008,03,21,07,08,1026.82
2008,03,21,07,09,1026.79
2008,03,21,07,10,1026.82
2008,03,21,07,11,1026.82
2008,03,21,07,12,1026.86
2008,03,21,07,13,1026.89
2008,03,21,07,14,1026.89
2008,03,21,07,15,1026.89
2008,03,21,07,16,1026.92
2008,03,21,07,17,1026.96
2008,03,21,07,18,1027.02
2008,03,21,07,19,1027.02
2008,03,21,07,20,1027.06
2008,03,21,07,21,1027.09
2008,03,21,07,22,1027.06
2008,03,21,07,23,1027.06
2008,03,21,07,24,1027.09
2008,03,21,07,25,1027.13
2008,03,21,07,26,1027.13
2008,03,21,07,27,1027.19
2008,03,21,07,28,1027.23
2008,03,21,07,29,1027.26
2008,03,21,07,30,1027.26
2008,03,21,07,31,1027.30
2008,03,21,07,32,1027.30
2008,03,21,07,33,1027.26
2008,03,21,07,34,1027.30
2008,03,21,07,35,1027.33
2008,03,21,07,36,1027.33
2008,03,21,07,37,1027.36
2008,03,21,07,38,1027.40
2008,03,21,07,39,1027.40
2008,03,21,07,40,1027.40
2008,03,21,07,41,1027.40
2008,03,21,07,42,1027.36
2008,03,21,07,43,1027.30
2008,03,21,07,44,1027.30
2008,03,21,07,45,1027.33
2008,03,21,07,46,1027.37
2008,03,21,07,47,1027.43
2008,03,21,07,48,1027.46
2008,03,21,07,49,1027.43
2008,03,21,07,50,1027.41
2008,03,21,07,51,1027.50
2008,03,21,07,52,1027.50
2008,03,21,07,53,1027.51
2008,03,21,07,54,1027.57
2008,03,21,07,55,1027.63
2008,03,21,07,56,1027.60
2008,03,21,07,57,1027.60
2008,03,21,07,58,1027.61
2008,03,21,07,59,1027.67
2008,03,21,08,00,1027.70
2008,03,21,08,01,1027.67
2008,03,21,08,02,1027.70
2008,03,21,08,03,1027.67
2008,03,21,08,04,1027.67
2008,03,21,08,05,1027.67
2008,03,21,08,06,1027.70
2008,03,21,08,07,1027.74
2008,03,21,08,08,1027.74
2008,03,21,08,09,1027.70
2008,03,21,08,10,1027.74
2008,03,21,08,11,1027.77
2008,03,21,08,12,1027.80
2008,03,21,08,13,1027.80
2008,03,21,08,14,1027.87
2008,03,21,08,15,1027.84
2008,03,21,08,16,1027.87
2008,03,21,08,17,1027.90
2008,03,21,08,18,1027.90
2008,03,21,08,19,1027.90
2008,03,21,08,20,1027.94
2008,03,21,08,21,1027.97
2008,03,21,08,22,1028.01
2008,03,21,08,23,1028.04
2008,03,21,08,24,1028.07
2008,03,21,08,25,1028.07
2008,03,21,08,26,1028.11
2008,03,21,08,27,1028.14
2008,03,21,08,28,1028.11
2008,03,21,08,29,1028.11
2008,03,21,08,30,1028.14
2008,03,21,08,31,1028.18
2008,03,21,08,32,1028.21
2008,03,21,08,33,1028.18
2008,03,21,08,34,1028.21
2008,03,21,08,35,1028.28
2008,03,21,08,36,1028.24
2008,03,21,08,37,1028.28
2008,03,21,08,38,1028.28
2008,03,21,08,39,1028.31
2008,03,21,08,40,1028.29
2008,03,21,08,41,1028.35
2008,03,21,08,42,1028.31
2008,03,21,08,43,1028.31
2008,03,21,08,44,1028.41
2008,03,21,08,45,1028.41
2008,03,21,08,46,1028.45
2008,03,21,08,47,1028.51
2008,03,21,08,48,1028.48
2008,03,21,08,49,1028.48
2008,03,21,08,50,1028.51
2008,03,21,08,51,1028.55
2008,03,21,08,52,1028.55
2008,03,21,08,53,1028.58
2008,03,21,08,54,1028.55
2008,03,21,08,55,1028.62
2008,03,21,08,56,1028.62
2008,03,21,08,57,1028.62
2008,03,21,08,58,1028.68
2008,03,21,08,59,1028.65
2008,03,21,09,00,1028.68
2008,03,21,09,01,1028.68
2008,03,21,09,02,1028.68
2008,03,21,09,03,1028.72
2008,03,21,09,04,1028.68
2008,03,21,09,05,1028.72
2008,03,21,09,06,1028.68
2008,03,21,09,07,1028.68
2008,03,21,09,08,1028.68
2008,03,21,09,09,1028.72
2008,03,21,09,10,1028.72
2008,03,21,09,11,1028.75
2008,03,21,09,12,1028.75
2008,03,21,09,13,1028.75
2008,03,21,09,14,1028.75
2008,03,21,09,15,1028.75
2008,03,21,09,16,1028.79
2008,03,21,09,17,1028.75
2008,03,21,09,18,1028.75
2008,03,21,09,19,1028.79
2008,03,21,09,20,1028.79
2008,03,21,09,21,1028.75
2008,03,21,09,22,1028.75
2008,03,21,09,23,1028.75
2008,03,21,09,24,1028.82
2008,03,21,09,25,1028.79
2008,03,21,09,26,1028.79
2008,03,21,09,27,1028.82
2008,03,21,09,28,1028.82
2008,03,21,09,29,1028.82
2008,03,21,09,30,1028.79
2008,03,21,09,31,1028.82
2008,03,21,09,32,1028.79
2008,03,21,09,33,1028.79
2008,03,21,09,34,1028.82
2008,03,21,09,35,1028.82
2008,03,21,09,36,1028.79
2008,03,21,09,37,1028.82
2008,03,21,09,38,1028.79
2008,03,21,09,39,1028.79
2008,03,21,09,40,1028.82
2008,03,21,09,41,1028.82
2008,03,21,09,42,1028.82
2008,03,21,09,43,1028.85
2008,03,21,09,44,1028.89
2008,03,21,09,45,1028.92
2008,03,21,09,46,1028.92
2008,03,21,09,47,1028.99
2008,03,21,09,48,1029.02
2008,03,21,09,49,1028.99
2008,03,21,09,50,1029.06
2008,03,21,09,51,1029.02
2008,03,21,09,52,1029.09
2008,03,21,09,53,1029.09
2008,03,21,09,54,1029.12
2008,03,21,09,55,1029.16
2008,03,21,09,56,1029.16
2008,03,21,09,57,1029.12
2008,03,21,09,58,1029.19
2008,03,21,09,59,1029.23
2008,03,21,10,00,1029.19
2008,03,21,10,01,1029.26
2008,03,21,10,02,1029.26
2008,03,21,10,03,1029.33
2008,03,21,10,04,1029.36
2008,03,21,10,05,1029.43
2008,03,21,10,06,1029.46
2008,03,21,10,07,1029.46
2008,03,21,10,08,1029.46
2008,03,21,10,09,1029.50
2008,03,21,10,10,1029.50
2008,03,21,10,11,1029.56
2008,03,21,10,12,1029.60
2008,03,21,10,13,1029.63
2008,03,21,10,14,1029.67
2008,03,21,10,15,1029.67
2008,03,21,10,16,1029.73
2008,03,21,10,17,1029.77
2008,03,21,10,18,1029.77
2008,03,21,10,19,1029.80
2008,03,21,10,20,1029.84
2008,03,21,10,21,1029.84
2008,03,21,10,22,1029.90
2008,03,21,10,23,1029.97
2008,03,21,10,24,1029.97
2008,03,21,10,25,1030.04
2008,03,21,10,26,1030.04
2008,03,21,10,27,1030.07
2008,03,21,10,28,1030.12
2008,03,21,10,29,1030.21
2008,03,21,10,30,1030.15
2008,03,21,10,31,1030.24
2008,03,21,10,32,1030.24
2008,03,21,10,33,1030.31
2008,03,21,10,34,1030.31
2008,03,21,10,35,1030.41
2008,03,21,10,36,1030.48
2008,03,21,10,37,1030.48
2008,03,21,10,38,1030.48
2008,03,21,10,39,1030.51
2008,03,21,10,40,1030.55
2008,03,21,10,41,1030.58
2008,03,21,10,42,1030.58
2008,03,21,10,43,1030.61
2008,03,21,10,44,1030.62
2008,03,21,10,45,1030.72
2008,03,21,10,46,1030.72
2008,03,21,10,47,1030.78
2008,03,21,10,48,1030.78
2008,03,21,10,49,1030.82
2008,03,21,10,50,1030.82
2008,03,21,10,51,1030.88
2008,03,21,10,52,1030.92
2008,03,21,10,53,1030.92
2008,03,21,10,54,1030.88
2008,03,21,10,55,1030.92
2008,03,21,10,56,1030.92
2008,03,21,10,57,1030.95
2008,03,21,10,58,1030.95
2008,03,21,10,59,1031.02
2008,03,21,11,00,1031.05
2008,03,21,11,01,1031.09
2008,03,21,11,02,1031.12
2008,03,21,11,03,1031.16
2008,03,21,11,04,1031.12
2008,03,21,11,05,1031.16
2008,03,21,11,06,1031.16
2008,03,21,11,07,1031.19
2008,03,21,11,08,1031.19
2008,03,21,11,09,1031.22
2008,03,21,11,10,1031.22
2008,03,21,11,11,1031.22
2008,03,21,11,12,1031.22
2008,03,21,11,13,1031.22
2008,03,21,11,14,1031.19
2008,03,21,11,15,1031.22
2008,03,21,11,16,1031.22
2008,03,21,11,17,1031.22
2008,03,21,11,18,1031.26
2008,03,21,11,19,1031.22
2008,03,21,11,20,1031.22
2008,03,21,11,21,1031.22
2008,03,21,11,22,1031.19
2008,03,21,11,23,1031.22
2008,03,21,11,24,1031.22
2008,03,21,11,25,1031.22
2008,03,21,11,26,1031.26
2008,03,21,11,27,1031.22
2008,03,21,11,28,1031.19
2008,03,21,11,29,1031.19
2008,03,21,11,30,1031.19
2008,03,21,11,31,1031.22
2008,03,21,11,32,1031.22
2008,03,21,11,33,1031.22
2008,03,21,11,34,1031.22
2008,03,21,11,35,1031.19
2008,03,21,11,36,1031.26
2008,03,21,11,37,1031.22
2008,03,21,11,38,1031.19
2008,03,21,11,39,1031.22
2008,03,21,11,40,1031.22
2008,03,21,11,41,1031.26
2008,03,21,11,42,1031.22
2008,03,21,11,43,1031.22
2008,03,21,11,44,1031.22
2008,03,21,11,45,1031.22
2008,03,21,11,46,1031.22
2008,03,21,11,47,1031.19
2008,03,21,11,48,1031.19
2008,03,21,11,49,1031.22
2008,03,21,11,50,1031.26
2008,03,21,11,51,1031.33
2008,03,21,11,52,1031.29
2008,03,21,11,53,1031.29
2008,03,21,11,54,1031.33
2008,03,21,11,55,1031.33
2008,03,21,11,56,1031.33
2008,03,21,11,57,1031.33
2008,03,21,11,58,1031.33
2008,03,21,11,59,1031.29
2008,03,21,12,00,1031.26
2008,03,21,12,01,1031.29
2008,03,21,12,02,1031.29
2008,03,21,12,03,1031.29
2008,03,21,12,04,1031.36
2008,03,21,12,05,1031.33
2008,03,21,12,06,1031.36
2008,03,21,12,07,1031.36
2008,03,21,12,08,1031.36
2008,03,21,12,09,1031.36
2008,03,21,12,10,1031.39
2008,03,21,12,11,1031.36
2008,03,21,12,12,1031.39
2008,03,21,12,13,1031.33
2008,03,21,12,14,1031.36
2008,03,21,12,15,1031.33
2008,03,21,12,16,1031.36
2008,03,21,12,17,1031.39
2008,03,21,12,18,1031.36
2008,03,21,12,19,1031.33
2008,03,21,12,20,1031.36
2008,03,21,12,21,1031.36
2008,03,21,12,22,1031.39
2008,03,21,12,23,1031.39
2008,03,21,12,24,1031.39
2008,03,21,12,25,1031.39
2008,03,21,12,26,1031.43
2008,03,21,12,27,1031.43
2008,03,21,12,28,1031.43
2008,03,21,12,29,1031.39
2008,03,21,12,30,1031.39
2008,03,21,12,31,1031.39
2008,03,21,12,32,1031.43
2008,03,21,12,33,1031.43
2008,03,21,12,34,1031.46
2008,03,21,12,35,1031.46
2008,03,21,12,36,1031.46
2008,03,21,12,37,1031.46
2008,03,21,12,38,1031.43
2008,03,21,12,39,1031.49
2008,03,21,12,40,1031.49
2008,03,21,12,41,1031.49
2008,03,21,12,42,1031.49
2008,03,21,12,43,1031.49
2008,03,21,12,44,1031.49
2008,03,21,12,45,1031.53
2008,03,21,12,46,1031.53
2008,03,21,12,47,1031.53
2008,03,21,12,48,1031.56
2008,03,21,12,49,1031.56
2008,03,21,12,50,1031.60
2008,03,21,12,51,1031.60
2008,03,21,12,52,1031.60
2008,03,21,12,53,1031.60
2008,03,21,12,54,1031.60
2008,03,21,12,55,1031.60
2008,03,21,12,56,1031.63
2008,03,21,12,57,1031.63
2008,03,21,12,58,1031.63
2008,03,21,12,59,1031.66
2008,03,21,13,00,1031.66
2008,03,21,13,01,1031.70
2008,03,21,13,02,1031.66
2008,03,21,13,03,1031.66
2008,03,21,13,04,1031.70
2008,03,21,13,05,1031.73
2008,03,21,13,06,1031.70
2008,03,21,13,07,1031.70
2008,03,21,13,08,1031.70
2008,03,21,13,09,1031.73
2008,03,21,13,10,1031.70
2008,03,21,13,11,1031.70
2008,03,21,13,12,1031.70
2008,03,21,13,13,1031.70
2008,03,21,13,14,1031.66
2008,03,21,13,15,1031.70
2008,03,21,13,16,1031.73
2008,03,21,13,17,1031.77
2008,03,21,13,18,1031.77
2008,03,21,13,19,1031.73
2008,03,21,13,20,1031.77
2008,03,21,13,21,1031.80
2008,03,21,13,22,1031.83
2008,03,21,13,23,1031.87
2008,03,21,13,24,1031.87
2008,03,21,13,25,1031.80
2008,03,21,13,26,1031.83
2008,03,21,13,27,1031.90
2008,03,21,13,28,1031.87
2008,03,21,13,29,1031.83
2008,03,21,13,30,1031.90
2008,03,21,13,31,1031.90
2008,03,21,13,32,1031.90
2008,03,21,13,33,1031.90
2008,03,21,13,34,1031.90
2008,03,21,13,35,1031.93
2008,03,21,13,36,1031.93
2008,03,21,13,37,1031.90
2008,03,21,13,38,1031.93
2008,03,21,13,39,1031.93
2008,03,21,13,40,1032.00
2008,03,21,13,41,1032.00
2008,03,21,13,42,1032.04
2008,03,21,13,43,1032.00
2008,03,21,13,44,1032.07
2008,03,21,13,45,1032.07
2008,03,21,13,46,1032.07
2008,03,21,13,47,1032.10
2008,03,21,13,48,1032.14
2008,03,21,13,49,1032.14
2008,03,21,13,50,1032.14
2008,03,21,13,51,1032.10
2008,03,21,13,52,1032.14
2008,03,21,13,53,1032.10
2008,03,21,13,54,1032.14
2008,03,21,13,55,1032.14
2008,03,21,13,56,1032.14
2008,03,21,13,57,1032.14
2008,03,21,13,58,1032.17
2008,03,21,13,59,1032.17
2008,03,21,14,00,1032.17
2008,03,21,14,01,1032.24
2008,03,21,14,02,1032.27
2008,03,21,14,03,1032.31
2008,03,21,14,04,1032.31
2008,03,21,14,05,1032.34
2008,03,21,14,06,1032.31
2008,03,21,14,07,1032.37
2008,03,21,14,08,1032.34
2008,03,21,14,09,1032.41
2008,03,21,14,10,1032.44
2008,03,21,14,11,1032.44
2008,03,21,14,12,1032.44
2008,03,21,14,13,1032.48
2008,03,21,14,14,1032.51
2008,03,21,14,15,1032.51
2008,03,21,14,16,1032.51
2008,03,21,14,17,1032.48
2008,03,21,14,18,1032.48
2008,03,21,14,19,1032.48
2008,03,21,14,20,1032.48
2008,03,21,14,21,1032.51
2008,03,21,14,22,1032.48
2008,03,21,14,23,1032.51
2008,03,21,14,24,1032.54
2008,03,21,14,25,1032.58
2008,03,21,14,26,1032.51
2008,03,21,14,27,1032.54
2008,03,21,14,28,1032.58
2008,03,21,14,29,1032.58
2008,03,21,14,30,1032.61
2008,03,21,14,31,1032.65
2008,03,21,14,32,1032.61
2008,03,21,14,33,1032.65
2008,03,21,14,34,1032.65
2008,03,21,14,35,1032.61
2008,03,21,14,36,1032.68
2008,03,21,14,37,1032.65
2008,03,21,14,38,1032.65
2008,03,21,14,39,1032.68
2008,03,21,14,40,1032.71
2008,03,21,14,41,1032.75
2008,03,21,14,42,1032.71
2008,03,21,14,43,1032.71
2008,03,21,14,44,1032.71
2008,03,21,14,45,1032.68
2008,03,21,14,46,1032.68
2008,03,21,14,47,1032.68
2008,03,21,14,48,1032.68
2008,03,21,14,49,1032.65
2008,03,21,14,50,1032.68
2008,03,21,14,51,1032.68
2008,03,21,14,52,1032.71
2008,03,21,14,53,1032.71
2008,03,21,14,54,1032.71
2008,03,21,14,55,1032.71
2008,03,21,14,56,1032.68
2008,03,21,14,57,1032.68
2008,03,21,14,58,1032.65
2008,03,21,14,59,1032.68
2008,03,21,15,00,1032.68
2008,03,21,15,01,1032.71
2008,03,21,15,02,1032.71
2008,03,21,15,03,1032.75
2008,03,21,15,04,1032.71
2008,03,21,15,05,1032.65
2008,03,21,15,06,1032.68
2008,03,21,15,07,1032.68
2008,03,21,15,08,1032.68
2008,03,21,15,09,1032.68
2008,03,21,15,10,1032.68
2008,03,21,15,11,1032.68
2008,03,21,15,12,1032.65
2008,03,21,15,13,1032.68
2008,03,21,15,14,1032.61
2008,03,21,15,15,1032.61
2008,03,21,15,16,1032.61
2008,03,21,15,17,1032.68
2008,03,21,15,18,1032.71
2008,03,21,15,19,1032.71
2008,03,21,15,20,1032.71
2008,03,21,15,21,1032.71
2008,03,21,15,22,1032.75
2008,03,21,15,23,1032.75
2008,03,21,15,24,1032.75
2008,03,21,15,25,1032.75
2008,03,21,15,26,1032.75
2008,03,21,15,27,1032.75
2008,03,21,15,28,1032.71
2008,03,21,15,29,1032.71
2008,03,21,15,30,1032.75
2008,03,21,15,31,1032.71
2008,03,21,15,32,1032.75
2008,03,21,15,33,1032.78
2008,03,21,15,34,1032.75
2008,03,21,15,35,1032.78
2008,03,21,15,36,1032.78
2008,03,21,15,37,1032.75
2008,03,21,15,38,1032.78
2008,03,21,15,39,1032.78
2008,03,21,15,40,1032.78
2008,03,21,15,41,1032.78
2008,03,21,15,42,1032.75
2008,03,21,15,43,1032.75
2008,03,21,15,44,1032.75
2008,03,21,15,45,1032.78
2008,03,21,15,46,1032.75
2008,03,21,15,47,1032.75
2008,03,21,15,48,1032.75
2008,03,21,15,49,1032.75
2008,03,21,15,50,1032.75
2008,03,21,15,51,1032.71
2008,03,21,15,52,1032.75
2008,03,21,15,53,1032.75
2008,03,21,15,54,1032.75
2008,03,21,15,55,1032.75
2008,03,21,15,56,1032.78